Location: Bou Ouachlou
(32.7770°N, 5.6009°W)
Time: 19:07:53
(UTC+00:00)

ATLAS 5 CENTAUR R/B - Pass Details

Date: 07 June 2020
Orbit: 542 x 1117 km, 63.4° (Epoch: 26 June)

Event Time Altitude Azimuth Distance (km) Brightness Sun altitude
Exits shadow 02:52:44 - 128° (SE) 1,879 4.0 -23.7°
Reaches altitude 10° 02:53:26 10° 118° (ESE) 1,812 4.1 -23.6°
Maximum altitude 02:54:09 10° 108° (ESE) 1,795 4.2 -23.5°
Drops below altitude 10° 02:54:52 10° 98° (E) 1,831 4.3 -23.4°
Sets 02:59:06 0° 57° (ENE) 2,815 6.2 -22.9°
